Theta_e
338 334 335 336 333 330 328 324 317 315 317 324 328 328 328 329 327 328 330 327 332 332 326 330 324 321 324 326 320 323 320 319 326
337 335 335 333 333 328 325 322 316 316 316 322 329 329 329 328 327 323 328 325 328 328 322 330 327 320 319 323 323 322 320 320 317
335 334 335 333 333 327 323 318 316 315 316 320 329 330 330 330 329 324 324 326 321 318 320 327 324 319 319 318 319 319 319 318 318
325 333 336 335 333 327 322 316 316 316 316 317 327 330 329 329 326 322 320 325 318 318 318 319 319 319 319 319 319 320 320 319 320
323 333 334 335 333 328 321 316 316 317 316 315 324 328 328 328 326 325 319 318 319 318 318 318 318 318 319 319 319 320 321 321 321
326 330 334 334 332 329 322 316 316 317 316 315 320 325 327 328 328 327 322 318 318 318 319 319 318 318 319 319 320 321 321 322 322
334 326 333 333 331 329 322 317 317 317 316 315 319 326 328 328 328 326 319 319 319 319 319 320 320 320 318 319 320 321 322 322 323
335 326 332 334 333 331 324 317 316 317 317 315 317 327 328 328 327 324 320 320 320 320 320 320 320 321 321 320 319 320 321 323 324
337 332 328 333 334 333 329 319 317 317 319 316 316 324 328 328 326 325 322 320 320 320 320 320 321 321 321 322 322 322 322 324 325
337 337 338 337 335 333 331 324 317 317 319 320 319 321 327 328 326 326 323 320 319 319 320 320 320 321 321 322 322 322 323 324 325
337 337 338 338 337 334 331 329 319 318 321 322 325 325 325 327 326 326 323 321 319 318 319 319 319 320 321 322 322 323 326 328 329
338 338 338 338 337 336 333 329 328 323 326 326 326 326 326 325 325 325 322 320 320 318 318 319 319 319 320 321 325 330 330 326 324
337 337 337 337 337 337 335 331 331 327 329 329 327 327 327 325 324 324 322 320 319 319 320 320 319 320 320 322 327 327 325 323 323
339 337 337 336 336 337 336 334 332 331 329 329 327 327 327 326 325 325 324 320 318 317 318 320 320 320 321 321 323 323 323 323 323
339 339 338 337 336 336 336 335 333 332 330 327 327 327 327 327 327 326 326 325 322 320 319 320 320 320 321 321 323 324 324 323 323
339 338 338 338 337 336 336 335 334 332 330 327 327 327 327 327 326 326 326 326 325 321 319 321 322 320 321 321 322 324 324 324 324
329 336 339 339 338 337 336 336 335 333 332 327 326 327 326 326 327 327 325 324 325 324 322 322 322 322 321 321 322 322 324 324 324
323 325 335 337 338 338 336 336 336 335 333 330 326 326 326 326 326 326 325 323 322 321 320 321 323 322 321 321 322 322 323 325 325
318 321 323 332 336 337 336 336 335 335 334 331 326 325 325 325 324 323 322 321 321 322 321 321 322 321 322 321 322 322 322 323 325
307 314 319 321 329 332 334 334 335 335 335 333 331 326 325 326 325 325 324 323 323 325 325 325 324 323 322 322 322 323 323 323 324
Wind_Speed
8 8 8 6 6 6 5 5 6 8 11 14 15 13 10 9 4 9 7 12 11 10 8 11 11 12 13 14 15 15 16 16 17
9 8 7 6 5 4 3 4 6 8 11 13 15 12 8 8 5 5 7 7 8 7 9 10 7 10 11 12 13 14 15 15 15
9 8 7 6 4 3 3 3 5 8 9 12 13 10 10 4 4 4 8 8 8 7 7 8 7 8 9 10 10 12 14 15 14
9 8 8 7 5 3 3 3 6 7 9 11 14 11 7 3 2 3 5 8 7 7 6 5 6 7 7 8 9 11 13 13 13
11 10 10 8 6 3 3 4 5 6 8 11 12 10 6 3 4 4 2 5 6 5 5 4 5 5 5 6 7 8 10 11 12
12 14 12 10 8 6 5 5 6 6 8 10 12 10 10 5 0 3 2 3 5 4 4 3 3 3 3 3 4 6 7 8 10
13 16 14 13 11 10 7 7 8 7 8 10 12 10 8 5 3 3 3 4 3 3 3 2 2 2 2 2 2 3 5 6 8
15 17 18 17 15 13 11 11 10 9 9 11 12 12 10 7 7 5 5 5 4 3 2 1 1 1 1 1 2 3 4 5 6
19 18 18 19 17 16 14 12 12 11 10 12 14 12 12 9 9 7 7 7 7 5 4 3 3 3 3 3 3 3 4 5 7
22 21 20 20 20 19 17 15 15 15 14 13 12 13 13 12 13 10 9 9 9 8 7 6 6 6 5 5 5 5 5 7 9
26 25 25 23 23 21 20 18 17 18 16 14 13 14 15 17 17 15 13 11 11 11 10 9 9 8 8 7 7 7 8 10 11
30 29 28 27 25 24 22 20 16 18 18 17 17 17 17 20 19 19 16 14 12 13 13 12 11 11 11 10 9 10 11 12 12
35 34 32 30 27 26 23 22 19 20 20 19 21 21 21 20 23 22 20 18 16 15 13 13 13 12 12 12 12 13 13 13 13
33 36 36 33 32 30 27 27 25 24 25 26 23 24 24 22 20 21 21 20 18 17 15 14 14 12 13 13 14 14 14 14 14
35 36 36 35 36 34 30 29 30 29 27 27 27 27 26 25 25 24 23 22 21 20 18 17 16 15 14 14 15 15 15 15 15
39 39 37 38 38 38 35 33 33 33 30 29 29 28 28 28 28 28 27 26 25 23 22 21 19 18 17 15 15 15 15 16 16
38 41 42 41 40 40 39 39 39 36 34 33 29 26 29 31 31 31 30 30 29 29 27 25 22 21 20 17 16 16 16 16 16
39 39 42 44 41 42 42 42 43 42 38 37 29 15 18 24 34 36 35 33 31 29 27 27 26 24 22 20 19 18 17 17 18
42 39 40 41 43 44 44 42 44 43 43 40 41 35 18 15 14 25 34 35 32 31 30 30 30 28 26 24 23 20 18 19 19
38 43 40 40 41 42 44 44 46 47 46 43 44 44 38 25 22 19 23 26 28 28 27 26 27 26 24 19 19 21 20 19 19
Wind_Direction
147 140 136 127 107 97 93 83 84 104 114 121 110 103 104 106 135 106 114 107 115 105 91 66 62 71 70 70 68 69 64 70 66
164 157 157 149 122 102 99 93 102 116 123 122 119 113 109 116 101 125 126 117 130 127 103 92 63 70 71 73 66 61 70 59 62
170 174 173 164 153 128 124 114 120 126 129 134 130 124 130 128 333 129 157 131 123 117 126 111 83 74 72 71 68 61 61 60 54
189 187 185 186 183 161 145 141 135 135 138 143 141 139 144 120 96 114 129 115 131 123 122 113 84 82 74 69 64 63 58 56 50
205 202 200 199 208 219 197 171 154 149 147 151 155 154 136 116 92 60 71 133 134 127 120 105 86 85 77 65 63 63 57 51 46
212 207 208 211 218 232 219 194 175 164 161 162 161 151 134 144 16 339 304 166 141 136 127 105 84 74 73 57 58 56 53 42 36
229 213 212 216 223 232 225 206 195 182 176 174 169 160 151 174 245 257 237 215 180 161 151 130 108 72 62 41 29 26 31 25 23
228 225 215 216 221 229 228 216 210 201 192 185 182 170 177 205 253 229 233 234 227 215 207 206 227 281 343 1 340 341 350 357 3
226 227 227 226 227 230 233 227 220 213 200 189 192 187 191 218 246 244 245 243 245 245 246 249 258 262 279 294 300 310 318 324 333
231 230 232 235 233 233 236 232 225 222 215 194 192 204 200 221 241 244 242 243 251 256 259 264 267 266 265 276 283 292 300 307 315
228 231 234 237 236 236 237 234 229 221 224 220 208 216 211 226 238 243 244 244 248 255 262 268 270 272 267 269 276 282 297 302 304
232 232 234 237 237 237 238 230 226 219 217 219 223 226 229 228 238 244 248 247 253 253 260 266 269 271 271 269 268 283 290 297 301
236 236 235 237 236 234 235 230 227 228 225 228 222 226 236 238 236 246 250 253 253 255 261 265 269 272 275 275 277 281 289 293 294
237 238 238 236 236 233 233 230 229 230 225 231 229 227 237 242 239 243 251 254 255 257 259 264 269 270 272 273 280 285 288 293 294
240 239 239 237 236 235 228 231 230 237 234 231 234 233 236 239 243 244 249 254 257 259 260 263 269 270 272 272 275 282 283 290 295
239 242 240 236 236 236 231 228 230 233 235 233 236 239 240 239 243 246 246 246 254 261 265 267 271 272 271 272 274 278 280 282 290
240 240 239 237 236 234 238 231 229 236 233 226 231 235 240 239 240 246 246 245 249 254 259 263 266 270 269 270 272 274 277 281 283
241 242 242 241 241 240 236 235 228 232 231 230 221 224 230 240 242 244 247 249 249 252 255 260 264 268 272 275 275 274 273 275 277
238 242 244 245 243 244 240 242 236 232 233 229 227 228 241 221 247 248 249 249 251 252 253 255 260 266 272 276 277 274 273 270 274
244 240 243 245 245 246 248 244 243 240 238 237 232 229 230 240 243 251 245 243 244 245 248 253 259 264 270 275 277 274 271 273 271